Location: Brodeslavy
(49.9527°N, 13.5567°E)
Time: 16:01:15
(UTC+00:00)

DELTA 2 DEB (DPAF) - Pass Details

Date: 17 June 2025
Orbit: 536 x 545 km, 98.3° (Epoch: 20 July)

Event Time Altitude Azimuth Distance (km) Brightness Sun altitude
Rises 21:15:41 0° 17° (NNE) 2,706 8.1 -12.6°
Reaches altitude 10° 21:17:50 10° 20° (NNE) 1,808 7.1 -12.8°
Maximum altitude 21:21:43 64° 103° (ESE) 602 3.8 -13.0°
Enters shadow 21:24:21 19° 181° (S) 1,311 5.2 -13.2°
